Meteo pe oră la Dzielnica

Astăzi, 1 Octombrie, Joi

Timp Temperatura Precipitaţii Vânt Presiune Umiditate
00:00 +12°C° 0.6 mm 4 m/s 740 mmHg 92%
01:00 +12°C° 0 mm 4 m/s 740 mmHg 95%
02:00 +12°C° 0.3 mm 4 m/s 739 mmHg 95%
03:00 +12°C° 0.3 mm 3 m/s 739 mmHg 95%
04:00 +12°C° 0.3 mm 3 m/s 738 mmHg 95%
05:00 +12°C° 0.1 mm 3 m/s 738 mmHg 96%
06:00 +12°C° 0.1 mm 3 m/s 738 mmHg 96%
07:00 +12°C° 0.1 mm 3 m/s 738 mmHg 96%
08:00 +12°C° 0.3 mm 3 m/s 738 mmHg 95%
09:00 +12°C° 0.3 mm 3 m/s 737 mmHg 95%
10:00 +12°C° 0.3 mm 3 m/s 737 mmHg 95%
11:00 +12°C° 0.3 mm 3 m/s 737 mmHg 94%
12:00 +12°C° 0.3 mm 3 m/s 737 mmHg 94%
13:00 +12°C° 0.3 mm 3 m/s 736 mmHg 93%
14:00 +12°C° 0.4 mm 3 m/s 736 mmHg 93%
15:00 +12°C° 0.4 mm 3 m/s 736 mmHg 93%
16:00 +13°C° 0.4 mm 2 m/s 736 mmHg 93%
17:00 +13°C° 0.3 mm 2 m/s 736 mmHg 93%
18:00 +13°C° 0.3 mm 2 m/s 736 mmHg 94%
19:00 +12°C° 0.3 mm 2 m/s 736 mmHg 94%
20:00 +12°C° 0.2 mm 1 m/s 736 mmHg 95%
21:00 +12°C° 0.2 mm 1 m/s 736 mmHg 95%
22:00 +12°C° 0.2 mm 1 m/s 736 mmHg 96%
23:00 +11°C° 0.1 mm 0 m/s 736 mmHg 96%

Mâine, 2 Octombrie, Vineri

Timp Temperatura Precipitaţii Vânt Presiune Umiditate
00:00 +11°C° 0.1 mm 0 m/s 736 mmHg 96%
01:00 +11°C° 0.1 mm 0 m/s 736 mmHg 96%
02:00 +11°C° 0.1 mm 0 m/s 736 mmHg 95%
03:00 +11°C° 0.1 mm 0 m/s 735 mmHg 95%
04:00 +11°C° 0.1 mm 0 m/s 735 mmHg 95%
05:00 +12°C° 0.1 mm 1 m/s 735 mmHg 95%
06:00 +12°C° 0.1 mm 1 m/s 736 mmHg 94%
07:00 +12°C° 0.1 mm 1 m/s 736 mmHg 94%
08:00 +13°C° 0 mm 1 m/s 736 mmHg 92%
09:00 +13°C° 0 mm 2 m/s 736 mmHg 90%
10:00 +14°C° 0 mm 2 m/s 736 mmHg 88%
11:00 +15°C° 0 mm 2 m/s 736 mmHg 84%
12:00 +16°C° 0 mm 3 m/s 736 mmHg 79%
13:00 +17°C° 0 mm 3 m/s 736 mmHg 75%
14:00 +17°C° 0 mm 3 m/s 736 mmHg 74%
15:00 +18°C° 0 mm 3 m/s 736 mmHg 73%
16:00 +18°C° 0 mm 2 m/s 736 mmHg 73%
17:00 +17°C° 0 mm 3 m/s 736 mmHg 76%
18:00 +16°C° 0 mm 3 m/s 736 mmHg 80%
19:00 +14°C° 0 mm 4 m/s 736 mmHg 83%
20:00 +15°C° 0 mm 4 m/s 735 mmHg 81%
21:00 +15°C° 0 mm 4 m/s 735 mmHg 79%
22:00 +15°C° 0 mm 5 m/s 735 mmHg 77%
23:00 +15°C° 0 mm 5 m/s 735 mmHg 78%

Poimâine, 3 Octombrie, Sâmbătă

Timp Temperatura Precipitaţii Vânt Presiune Umiditate
00:00 +14°C° 0 mm 5 m/s 734 mmHg 80%
01:00 +14°C° 0 mm 5 m/s 734 mmHg 81%
02:00 +14°C° 0 mm 5 m/s 734 mmHg 80%
03:00 +14°C° 0 mm 5 m/s 734 mmHg 78%
04:00 +14°C° 0 mm 5 m/s 733 mmHg 77%
05:00 +15°C° 0 mm 5 m/s 733 mmHg 75%
06:00 +15°C° 0 mm 5 m/s 733 mmHg 72%
07:00 +16°C° 0 mm 6 m/s 733 mmHg 70%
08:00 +18°C° 0 mm 7 m/s 733 mmHg 63%
09:00 +21°C° 0 mm 8 m/s 733 mmHg 57%
10:00 +23°C° 0 mm 10 m/s 733 mmHg 50%
11:00 +24°C° 0 mm 10 m/s 733 mmHg 49%
12:00 +24°C° 0 mm 10 m/s 733 mmHg 48%
13:00 +26°C° 0 mm 10 m/s 733 mmHg 47%
14:00 +24°C° 0 mm 10 m/s 733 mmHg 50%
15:00 +24°C° 0 mm 9 m/s 733 mmHg 53%
16:00 +23°C° 0 mm 9 m/s 733 mmHg 57%
17:00 +22°C° 0 mm 8 m/s 733 mmHg 58%
18:00 +22°C° 0 mm 8 m/s 733 mmHg 59%
19:00 +21°C° 0 mm 7 m/s 733 mmHg 61%
20:00 +21°C° 0 mm 7 m/s 733 mmHg 61%
21:00 +21°C° 0 mm 6 m/s 732 mmHg 61%
22:00 +21°C° 0 mm 6 m/s 732 mmHg 61%
23:00 +20°C° 0 mm 6 m/s 732 mmHg 62%

4 Octombrie, Duminică

Timp Temperatura Precipitaţii Vânt Presiune Umiditate
00:00 +20°C° 0 mm 6 m/s 732 mmHg 63%
01:00 +20°C° 0 mm 6 m/s 732 mmHg 63%
02:00 +20°C° 0 mm 6 m/s 732 mmHg 64%
03:00 +19°C° 0 mm 6 m/s 732 mmHg 65%
04:00 +19°C° 0 mm 6 m/s 732 mmHg 65%
05:00 +19°C° 0.2 mm 6 m/s 733 mmHg 69%
06:00 +17°C° 0.2 mm 5 m/s 733 mmHg 73%
07:00 +17°C° 0.2 mm 5 m/s 733 mmHg 77%
08:00 +17°C° 0 mm 6 m/s 734 mmHg 72%
09:00 +18°C° 0 mm 7 m/s 735 mmHg 66%
10:00 +18°C° 0 mm 8 m/s 735 mmHg 61%
11:00 +20°C° 0 mm 8 m/s 736 mmHg 59%
12:00 +21°C° 0 mm 7 m/s 736 mmHg 57%
13:00 +21°C° 0 mm 7 m/s 737 mmHg 55%
14:00 +21°C° 0 mm 6 m/s 737 mmHg 56%
15:00 +21°C° 0 mm 5 m/s 737 mmHg 57%
16:00 +21°C° 0 mm 4 m/s 737 mmHg 58%
17:00 +19°C° 0 mm 4 m/s 737 mmHg 61%
18:00 +18°C° 0 mm 4 m/s 738 mmHg 64%
19:00 +17°C° 0 mm 3 m/s 738 mmHg 67%
20:00 +17°C° 0 mm 3 m/s 738 mmHg 68%
21:00 +16°C° 0 mm 3 m/s 738 mmHg 69%
22:00 +16°C° 0 mm 3 m/s 738 mmHg 70%
23:00 +16°C° 0 mm 3 m/s 737 mmHg 72%

5 Octombrie, Luni

Timp Temperatura Precipitaţii Vânt Presiune Umiditate
00:00 +14°C° 0 mm 3 m/s 737 mmHg 73%
01:00 +14°C° 0 mm 3 m/s 737 mmHg 74%
02:00 +14°C° 0.2 mm 3 m/s 737 mmHg 76%
03:00 +14°C° 0.2 mm 3 m/s 736 mmHg 78%
04:00 +14°C° 0.2 mm 3 m/s 736 mmHg 79%
05:00 +14°C° 0.1 mm 3 m/s 736 mmHg 80%
06:00 +15°C° 0.1 mm 4 m/s 736 mmHg 80%
07:00 +15°C° 0.1 mm 4 m/s 736 mmHg 81%
08:00 +16°C° 0 mm 6 m/s 736 mmHg 71%
09:00 +18°C° 0 mm 7 m/s 736 mmHg 61%
10:00 +21°C° 0 mm 9 m/s 737 mmHg 50%
11:00 +21°C° 0 mm 9 m/s 737 mmHg 50%
12:00 +22°C° 0 mm 9 m/s 737 mmHg 49%
13:00 +22°C° 0 mm 9 m/s 737 mmHg 48%
14:00 +22°C° 0.2 mm 8 m/s 738 mmHg 52%
15:00 +21°C° 0.2 mm 7 m/s 738 mmHg 56%
16:00 +20°C° 0.2 mm 7 m/s 738 mmHg 60%
17:00 +17°C° 0.1 mm 5 m/s 738 mmHg 65%
18:00 +17°C° 0.1 mm 4 m/s 739 mmHg 69%
19:00 +16°C° 0.1 mm 3 m/s 739 mmHg 74%
20:00 +15°C° 0 mm 2 m/s 740 mmHg 76%
21:00 +15°C° 0 mm 2 m/s 740 mmHg 77%
22:00 +14°C° 0 mm 2 m/s 741 mmHg 78%
23:00 +14°C° 0 mm 2 m/s 741 mmHg 79%

6 Octombrie, Marţi

Timp Temperatura Precipitaţii Vânt Presiune Umiditate
00:00 +14°C° 0 mm 1 m/s 741 mmHg 80%
01:00 +13°C° 0 mm 1 m/s 741 mmHg 81%
02:00 +13°C° 0 mm 1 m/s 741 mmHg 81%
03:00 +13°C° 0 mm 1 m/s 741 mmHg 82%
04:00 +12°C° 0 mm 0 m/s 741 mmHg 82%
05:00 +12°C° 0.1 mm 0 m/s 741 mmHg 83%
06:00 +13°C° 0.1 mm 1 m/s 741 mmHg 83%
07:00 +13°C° 0.1 mm 1 m/s 741 mmHg 84%
08:00 +15°C° 0 mm 1 m/s 741 mmHg 79%
09:00 +16°C° 0 mm 1 m/s 741 mmHg 75%
10:00 +18°C° 0 mm 1 m/s 740 mmHg 71%
11:00 +17°C° 0 mm 2 m/s 740 mmHg 71%
12:00 +17°C° 0 mm 2 m/s 740 mmHg 71%
13:00 +17°C° 0 mm 2 m/s 739 mmHg 71%
14:00 +17°C° 0.8 mm 2 m/s 739 mmHg 76%
15:00 +16°C° 0.8 mm 3 m/s 739 mmHg 82%
16:00 +14°C° 0.8 mm 3 m/s 739 mmHg 87%
17:00 +14°C° 1.5 mm 3 m/s 739 mmHg 88%
18:00 +13°C° 1.5 mm 4 m/s 739 mmHg 90%
19:00 +13°C° 1.5 mm 4 m/s 739 mmHg 91%
20:00 +13°C° 0.6 mm 4 m/s 740 mmHg 90%
21:00 +12°C° 0.6 mm 4 m/s 740 mmHg 89%
22:00 +12°C° 0.6 mm 4 m/s 741 mmHg 88%
23:00 +12°C° 0.6 mm 3 m/s 741 mmHg 89%
Arată mai mult

We Need Your Consent

Meteoprog and our Service Providers may store and access personal data such as cookies, device identifiers or other similar technologies on your device and process such data to personalise content and ads, as well as provide social media features and to analyse the traffic.

  • Store and/or access information on your device

    Cookies, device identifiers or other information can be stored or accessed on your device for the purposes indicated above.

  • Personalised ads and content, ad and content measurement, audience insights, and products development

    Ads and content can be personalised based on a profile. More data can be added to better personalise ads and content. Ad and content performance can be measured. Insights about the audience who saw the ads and content can be derived. Such data can be used to develop or improve user’s experience, systems and software.

By clicking ‘I Agree’ you will allow the use of indicated cookies, device identifiers, web beacons or other similar technologies. Your settings can be changed in the browser on your device.

For certain purposes, legitimate interests may be relied on, rather than consent. You can read more about this in our Privacy and Cookie Policy.